Regional Weather Roundup
Issued by NWS

Home | Current Version | Previous Version | Text Only | Print | Product List | Glossary Off
Versions: 1 2 3 4 5 6 7 8 9 10 11 12 13 14 15 16 17 18 19 20 21 22 23 24 25 26 27 28 29 30 31 32 33 34 35 36 37 38 39 40 41 42 43 44 45 46 47 48 49 50

000
ASUS43 KLSX 031607
RWRMO

WEATHER SUMMARY FOR MISSOURI
NATIONAL WEATHER SERVICE SPRINGFIELD MO
1100 AM CDT FRI JUL 03 2015

NOTE: "FAIR" INDICATES FEW OR NO CLOUDS BELOW 12,000 FEET WITH NO
       SIGNIFICANT WEATHER AND/OR OBSTRUCTIONS TO VISIBILITY.
       CURRENT SKY AND/OR WEATHER CONDITIONS ARE NOT AVAILABLE FOR
       CHILLICOTHE AND FARMINGTON.

MOZ001>031-035>038-043-044-053-054-031700-
...NORTHERN AND WESTERN MISSOURI...

CITY           SKY/WX    TMP DP  RH WIND       PRES   REMARKS
KANSAS CTY INT MOSUNNY   74  61  63 N9        29.97S
KANSAS C DTWN  MOSUNNY   75  63  66 E9        29.95S
LEE`S SUMMIT   CLOUDY    71  63  75 E3        29.97S
ST JOSEPH        N/A     73  58  59 NE7       29.99R
CHILLICOTHE      N/A     75  60  59 NE7       29.98F
KIRKSVILLE     MOSUNNY   72  59  63 NE8       29.99S

$$
MOZ066>068-077>081-088>096-101>105-031700-
...SOUTHWEST MISSOURI...

CITY           SKY/WX    TMP DP  RH WIND       PRES   REMARKS
SPRINGFIELD    LGT RAIN  72  68  87 W8        29.93S
JOPLIN         PTSUNNY   77  70  79 CALM      29.93F

$$
MOZ032>034-039>042-045>050-055>058-069>072-031700-
...CENTRAL MISSOURI...

CITY           SKY/WX    TMP DP  RH WIND       PRES   REMARKS
COLUMBIA       SUNNY     75  59  57 N10       29.95S
JEFFERSON CITY MOSUNNY   75  62  64 N8        29.94R
ROLLA          CLOUDY    72  64  76 NE3       29.94R
SEDALIA        CLOUDY    73  65  75 N6        29.97R
WHITEMAN AFB   PTSUNNY   70  64  83 N6        29.95S
WARRENSBURG    CLOUDY    72  63  73 NE6       29.95S
OSAGE BEACH    CLOUDY    72  64  78 CALM      29.95R

$$
MOZ051-052-059>065-031700-
...EAST CENTRAL MISSOURI...

CITY           SKY/WX    TMP DP  RH WIND       PRES   REMARKS
ST LOUIS INTL  MOSUNNY   76  65  68 N8        29.93S
SPIRIT OF STL  MOSUNNY   75  65  70 NE5       29.92R
ST CHARLES     SUNNY     73  65  75 VRB5      29.93R

$$
MOZ072>076-082>087-097>100-106>115-031700-
...SOUTH CENTRAL AND SOUTHEAST MISSOURI...

CITY           SKY/WX    TMP DP  RH WIND       PRES   REMARKS
CAPE GIRARDEAU MOSUNNY   77  69  76 VRB3      29.91S
FARMINGTON     MOSUNNY   75  64  69 N3        29.97S
POPLAR BLUFF   CLOUDY    77  70  79 CALM      29.91S
WEST PLAINS    CLOUDY    72  68  87 E5        29.96R FOG

$$



USA.gov is the U.S. government's official web portal to all federal, state and local government web resources and services.